Montgomery, NY

2:27 PM EDT on March 24, 2017 (GMT -0400)
Orange County

Weather History for KMGJ - August, 2014

Change the Weather History Date:

Thursday, August 7, 2014

  Actual Average (KSWF) Record (KSWF)
Temperature  
Mean Temperature 66 °F -  
Max Temperature 82 °F 80 °F 95 °F (2001)
Min Temperature 53 °F 61 °F 48 °F (1979)
Cooling Degree Days 2    
Growing Degree Days 16 (Base 50)    
Moisture  
Dew Point 52 °F    
Average Humidity 63    
Maximum Humidity 93    
Minimum Humidity 31    
Precipitation  
Precipitation 0.00 in - - ()
Sea Level Pressure  
Sea Level Pressure 29.95 in    
Wind  
Wind Speed 4 mph (NW)    
Max Wind Speed 14 mph    
Max Gust Speed 31 mph    
Visibility 10 miles    
Events      
Averages and records for this station are not official NWS values.
T = Trace of Precipitation, MM = Missing Value Source: NWS Daily Summary

Daily Weather History Graph

Daily Weather History Graph

Search for Another Location

Airport or City:

Trip Planner

Search our weather history database for the weather conditions in past years. The results will help you decide how hot, cold, wet, or windy it might be!

Date:

Astronomy

Aug. 07, 2014 Rise Set
Actual Time 5:57 AM EDT 8:07 PM EDT
Civil Twilight 5:27 AM EDT 8:37 PM EDT
Nautical Twilight 4:49 AM EDT 9:15 PM EDT
Astronomical Twilight 4:08 AM EDT 9:56 PM EDT
Moon 5:21 PM EDT (8/7) 2:24 AM EDT (8/7)
Length of Visible Light 15h 10m
Length of Day
14h 09m
Waxing Gibbous, 86% of the Moon is Illuminated
Aug 7
Waxing Gibbous
Aug 10
Full
Aug 17
Last Quarter
Aug 25
New
Sep 2
First Quarter

Hourly Weather History & Observations

Time (EDT) Temp. Dew Point Humidity Pressure Visibility Wind Dir Wind Speed Gust Speed Precip Events Conditions
12:54 AM 61.0 °F 52.0 °F 72% 29.91 in 10.0 mi Calm Calm - N/A   Clear
1:54 AM 57.9 °F 53.1 °F 84% 29.92 in 10.0 mi Calm Calm - N/A   Clear
2:54 AM 55.9 °F 53.1 °F 90% 29.92 in 10.0 mi SSE 3.5 mph - N/A   Clear
3:54 AM 55.9 °F 53.1 °F 90% 29.93 in 10.0 mi Calm Calm - N/A   Clear
4:54 AM 54.0 °F 52.0 °F 93% 29.93 in 10.0 mi Calm Calm - N/A   Clear
5:54 AM 53.1 °F 51.1 °F 93% 29.94 in 10.0 mi Calm Calm - N/A   Clear
6:54 AM 55.0 °F 53.1 °F 93% 29.95 in 10.0 mi Calm Calm - N/A   Clear
7:54 AM 61.0 °F 55.0 °F 81% 29.95 in 10.0 mi SSW 5.8 mph - N/A   Clear
8:54 AM 68.0 °F 55.0 °F 63% 29.96 in 10.0 mi NW 9.2 mph - N/A   Clear
9:54 AM 71.1 °F 55.9 °F 59% 29.95 in 10.0 mi NW 6.9 mph - N/A   Clear
10:54 AM 75.0 °F 57.0 °F 53% 29.95 in 10.0 mi NW 11.5 mph - N/A   Clear
11:54 AM 77.0 °F 54.0 °F 45% 29.95 in 10.0 mi NNW 13.8 mph 19.6 mph N/A   Mostly Cloudy
12:54 PM 79.0 °F 51.1 °F 38% 29.94 in 10.0 mi NW 12.7 mph 20.7 mph N/A   Clear
1:54 PM 80.1 °F 48.9 °F 34% 29.93 in 10.0 mi NNW 9.2 mph 21.9 mph N/A   Clear
2:54 PM 80.1 °F 48.0 °F 32% 29.93 in 10.0 mi NNW 13.8 mph 21.9 mph N/A   Scattered Clouds
3:54 PM 79.0 °F 46.0 °F 31% 29.92 in 10.0 mi NW 13.8 mph 19.6 mph N/A   Scattered Clouds
4:54 PM 77.0 °F 50.0 °F 39% 29.94 in 10.0 mi NNW 13.8 mph 31.1 mph N/A   Scattered Clouds
5:54 PM 75.0 °F 50.0 °F 41% 29.95 in 10.0 mi NNW 11.5 mph 20.7 mph N/A   Mostly Cloudy
6:54 PM 75.0 °F 50.0 °F 41% 29.97 in 10.0 mi NNW 8.1 mph 17.3 mph N/A   Mostly Cloudy
7:54 PM 70.0 °F 48.0 °F 46% 29.98 in 10.0 mi North 3.5 mph - N/A   Clear
8:54 PM 64.0 °F 50.0 °F 60% 30.00 in 10.0 mi Calm Calm - N/A   Clear
9:54 PM 57.9 °F 52.0 °F 81% 30.02 in 10.0 mi SSW 3.5 mph - N/A   Clear
10:54 PM 57.0 °F 51.1 °F 81% 30.03 in 10.0 mi Calm Calm - N/A   Clear
11:54 PM 57.9 °F 51.1 °F 78% 30.03 in 10.0 mi Calm Calm - N/A   Mostly Cloudy